DECAYED

NOAA 16 DEB, 42391 (Decayed)

Orbit data source: Space-Track

NOAA 16 DEB, 42391 was space debris in SSO originally from a launch on Thu, 21 Sep 2000 UTC launched from the Air Force Western Test Range (AFWTR). Debris objects in space refer to the collection of defunct objects orbiting the Earth. Examples of debris include non-operational satellites, rocket bodies, and fragments generated from explosions, collisions, or faulty payload assembly.

Not visible in the next 10 days
Identifier
42391, 2000-055SK
Orbit
Decayed
Country
Flag of USUS
Related business
Manufacturer
Unknown
Mission
Decayed spacecraft
Bus & Motor
Unknown
Mass
Unknown
Launch date (UTC)
2000-09-21 (26 years ago)
Launch vehicle
Unknown
Launch site
Air Force Western Test Range (AFWTR)
Object type
Payload
Rocket body
Debris
Shape & HBR
Unknown shape, 0.1 m
Radar Cross Section
Small (<0.1 m²)

Expand to show TLE details & history
Last TLE update: 2 months ago

TLE from 2 months ago
0 NOAA 16 DEB
1 42391U 00055SK  26066.72119792  .01094763  00000-0  24918-1 0  9992
2 42391  98.9985 339.6716 0010623 101.0669 259.1767 15.40258978524534
Epoch: 2026-03-07T17:18Z
TLE epoch observation values (Epoch: 2026-03-07T17:18:31.500Z)
Latitude
-0.00004°
Longitude
-85.39843°
Altitude
449.78 km
Speed
7.642 km/s
True Right ascension
22h 38m 41s
True Declination
0° 00' 00"
Sunlit
Object was in daylight at epoch
Visualization orbit readout
Latitude
Unknown
Longitude
Unknown
Altitude
Unknown
Speed
Unknown
Apparent Right ascension
Unknown
Apparent Declination
Unknown
Sunlit
N/A
Visualization observer readout
Local Sidereal Time
03:13:26
Azimuth
Unknown
Elevation
Unknown
Doppler factor
Unknown
Orbital elements
Apogee altitude
449.605 km
Perigee altitude
435.114 km
Semi-major axis
6,820.496 km
Eccentricity
0.00106
Inclination
98.9985°
RAAN
339.6716°
Arg. of periapsis
101.0669°
True anomaly
259.05716°
Mean anomaly
259.1767°
Eccentric anomaly
259.11693°
Mean motion
3.85318 °/min
Orbital period
93.43 mins
BSTAR
0.024918
Loading maneuver chart data...
Computing Atmospheric mass density...

Documentation

Showing up to 5 results
|